Time,TemperatureF,DewpointF,PressureIn,WindDirection,WindDirectionDegrees,WindSpeedMPH,WindSpeedGustMPH,Humidity,HourlyPrecipIn,Conditions,Clouds,dailyrainin,SoftwareType,DateUTC
2013-06-10 00:00:00,60.9,51.4,29.61,SSE,167,0.0,0.0,71,0.00,,,0.00,Wunderground v.1.15,2013-06-10 06:00:00,
2013-06-10 00:30:00,59.5,51.2,29.59,SE,137,0.0,0.0,74,0.00,,,0.00,Wunderground v.1.15,2013-06-10 06:30:00,
2013-06-10 01:00:00,62.1,52.2,29.58,SSE,153,4.0,6.0,70,0.00,,,0.00,Wunderground v.1.15,2013-06-10 07:00:00,
2013-06-10 01:30:00,62.3,51.6,29.57,ESE,105,3.0,3.0,68,0.00,,,0.00,Wunderground v.1.15,2013-06-10 07:30:00,
2013-06-10 02:00:00,59.9,50.8,29.56,SE,128,4.0,4.0,72,0.00,,,0.00,Wunderground v.1.15,2013-06-10 08:00:00,
2013-06-10 02:30:00,58.9,50.6,29.56,SSE,155,4.0,4.0,74,0.00,,,0.00,Wunderground v.1.15,2013-06-10 08:30:00,
2013-06-10 03:00:00,58.9,50.6,29.54,SE,141,6.0,8.0,74,0.00,,,0.00,Wunderground v.1.15,2013-06-10 09:00:00,
2013-06-10 03:30:00,57.5,49.6,29.52,East,89,3.0,3.0,75,0.00,,,0.00,Wunderground v.1.15,2013-06-10 09:30:00,
2013-06-10 04:00:00,55.6,49.5,29.51,SE,129,1.0,2.0,80,0.00,,,0.00,Wunderground v.1.15,2013-06-10 10:00:00,
2013-06-10 04:30:00,57.3,49.8,29.51,SSE,147,2.0,2.0,76,0.00,,,0.00,Wunderground v.1.15,2013-06-10 10:30:00,
2013-06-10 05:00:00,57.5,49.3,29.50,SE,143,2.0,6.0,74,0.00,,,0.00,Wunderground v.1.15,2013-06-10 11:00:00,
2013-06-10 05:30:00,55.4,49.0,29.50,East,96,1.0,1.0,79,0.00,,,0.00,Wunderground v.1.15,2013-06-10 11:30:00,
2013-06-10 06:00:00,56.7,49.9,29.52,NE,45,0.0,0.0,78,0.00,,,0.00,Wunderground v.1.15,2013-06-10 12:00:00,
2013-06-10 06:30:00,58.1,50.2,29.53,WNW,301,0.0,0.0,75,0.00,,,0.00,Wunderground v.1.15,2013-06-10 12:30:00,
2013-06-10 07:00:00,59.3,50.3,29.54,SSW,205,0.0,0.0,72,0.00,,,0.00,Wunderground v.1.15,2013-06-10 13:00:00,
2013-06-10 07:30:00,60.4,51.7,29.54,West,269,1.0,1.0,73,0.00,,,0.00,Wunderground v.1.15,2013-06-10 13:30:00,
2013-06-10 08:00:00,63.1,52.4,29.54,North,10,0.0,0.0,68,0.00,,,0.00,Wunderground v.1.15,2013-06-10 14:00:00,
2013-06-10 08:30:00,66.1,53.1,29.55,ESE,105,0.0,0.0,63,0.00,,,0.00,Wunderground v.1.15,2013-06-10 14:30:00,
2013-06-10 09:00:00,70.4,54.4,29.57,NW,305,1.0,1.0,57,0.00,,,0.00,Wunderground v.1.15,2013-06-10 15:00:00,
2013-06-10 09:30:00,72.5,55.9,29.57,NW,311,3.0,4.0,56,0.00,,,0.00,Wunderground v.1.15,2013-06-10 15:30:00,
2013-06-10 10:00:00,74.7,56.9,29.57,WNW,292,3.0,3.0,54,0.00,,,0.00,Wunderground v.1.15,2013-06-10 16:00:00,
2013-06-10 10:30:00,76.8,58.9,29.56,NE,48,4.0,4.0,54,0.00,,,0.00,Wunderground v.1.15,2013-06-10 16:30:00,
2013-06-10 11:00:00,77.6,56.9,29.58,North,5,6.0,10.0,49,0.00,,,0.00,Wunderground v.1.15,2013-06-10 17:00:00,
2013-06-10 11:30:00,78.3,57.0,29.57,North,351,7.0,8.0,48,0.00,,,0.00,Wunderground v.1.15,2013-06-10 17:30:00,
2013-06-10 12:00:00,78.5,56.6,29.58,ENE,58,6.0,6.0,47,0.00,,,0.00,Wunderground v.1.15,2013-06-10 18:00:00,
2013-06-10 12:30:00,79.2,57.8,29.58,North,5,6.0,6.0,48,0.00,,,0.00,Wunderground v.1.15,2013-06-10 18:30:00,
2013-06-10 13:00:00,79.8,56.6,29.58,North,5,5.0,5.0,45,0.00,,,0.00,Wunderground v.1.15,2013-06-10 19:00:00,
2013-06-10 13:30:00,80.3,56.4,29.57,North,5,5.0,5.0,44,0.00,,,0.00,Wunderground v.1.15,2013-06-10 19:30:00,
2013-06-10 14:00:00,80.5,57.2,29.59,ENE,64,5.0,7.0,45,0.00,,,0.00,Wunderground v.1.15,2013-06-10 20:00:00,
2013-06-10 14:30:00,80.7,56.8,29.60,North,5,5.0,5.0,44,0.00,,,0.00,Wunderground v.1.15,2013-06-10 20:30:00,
2013-06-10 15:00:00,80.1,59.2,29.60,NNE,14,4.0,5.0,49,0.00,,,0.00,Wunderground v.1.15,2013-06-10 21:00:00,
2013-06-10 15:30:00,80.7,58.6,29.59,North,355,4.0,4.0,47,0.00,,,0.00,Wunderground v.1.15,2013-06-10 21:30:00,
2013-06-10 16:00:00,79.9,55.4,29.59,ENE,59,5.0,5.0,43,0.00,,,0.00,Wunderground v.1.15,2013-06-10 22:00:00,
2013-06-10 16:30:00,79.8,55.9,29.60,West,278,4.0,7.0,44,0.00,,,0.00,Wunderground v.1.15,2013-06-10 22:30:00,
2013-06-10 17:00:00,80.3,54.5,29.60,NNE,14,3.0,3.0,41,0.00,,,0.00,Wunderground v.1.15,2013-06-10 23:00:00,
2013-06-10 17:30:00,77.6,55.8,29.60,NNW,336,3.0,3.0,47,0.00,,,0.00,Wunderground v.1.15,2013-06-10 23:30:00,
2013-06-10 18:00:00,78.1,57.9,29.60,NE,54,3.0,3.0,50,0.00,,,0.00,Wunderground v.1.15,2013-06-11 00:00:00,
2013-06-10 18:30:00,77.4,57.3,29.60,NNE,31,3.0,6.0,50,0.00,,,0.00,Wunderground v.1.15,2013-06-11 00:30:00,
2013-06-10 19:00:00,76.7,56.1,29.61,NNE,33,1.0,6.0,49,0.00,,,0.00,Wunderground v.1.15,2013-06-11 01:00:00,
2013-06-10 19:30:00,75.4,56.5,29.62,NNE,18,0.0,0.0,52,0.00,,,0.00,Wunderground v.1.15,2013-06-11 01:30:00,
2013-06-10 20:00:00,74.7,58.0,29.61,NNE,31,1.0,1.0,56,0.00,,,0.00,Wunderground v.1.15,2013-06-11 02:00:00,
2013-06-10 20:30:00,73.2,58.0,29.61,NE,48,1.0,1.0,59,0.00,,,0.00,Wunderground v.1.15,2013-06-11 02:30:00,
2013-06-10 21:00:00,71.6,57.9,29.64,NE,35,0.0,0.0,62,0.00,,,0.00,Wunderground v.1.15,2013-06-11 03:00:00,
2013-06-10 21:30:00,70.6,57.8,29.64,NW,316,0.0,0.0,64,0.00,,,0.00,Wunderground v.1.15,2013-06-11 03:30:00,
2013-06-10 22:00:00,70.3,58.0,29.67,North,5,0.0,3.0,65,0.00,,,0.00,Wunderground v.1.15,2013-06-11 04:00:00,
2013-06-10 22:30:00,70.4,57.2,29.63,NE,46,0.0,0.0,63,0.00,,,0.00,Wunderground v.1.15,2013-06-11 04:30:00,
2013-06-10 23:00:00,69.4,57.5,29.61,SSE,166,0.0,0.0,66,0.00,,,0.00,Wunderground v.1.15,2013-06-11 05:00:00,
2013-06-10 23:30:00,69.4,57.5,29.63,NNE,22,0.0,0.0,66,0.00,,,0.00,Wunderground v.1.15,2013-06-11 05:30:00,